User: anonymous   Login
Location: Unspecified
(0.0000°N, 0.0000°E)
Time: 08:58:32
(UTC+00:00)
Language:

N. Korean satellite - Orbit

View from above orbital plane
View from above orbital plane
View from above satellite
View from above satellite

Ground track
Ground track

The orbit data is extracted from the following two-line orbital elements,

1 39026U 12072A   17229.92951483 +.00001629 +00000-0 +65515-4 0  9998
2 39026 097.2222 245.6617 0039127 320.5065 039.3323 15.25634886259344
Epoch (UTC): 17 August 2017 22:18:30
Eccentricity: 0.0039127
inclination: 97.2222°
perigee height: 462 km
apogee height: 516 km
right ascension of ascending node: 245.6617°
argument of perigee: 320.5065°
revolutions per day: 15.25634886
mean anomaly at epoch: 39.3323°
orbit number at epoch: 25934

The dashed part of the orbit path shows where the satellite is in the earth's shadow,  

DLR